Notices

What's New in latest Release from April 7th, 2021:

- Updated Glossary, including Speed of Maximum Gust, and Total Hourly Precipitation

- Updated national and regional climate services offices contacts and prices information

- Addition of station inventory lists for 1981-2010, 1971-2000, and 1961-1990 Normals.

If you haven't already, please take our survey and provide feedback about our website: https://eccc.sondage-survey.ca/f/LanguageSelection.aspx?s=442ca660-fcf1-47c0-95a9-59707d6fd709

Hourly Data Report for September 04, 2017

TORONTO CITY
ONTARIO

43°40'00.000" N
79°24'00.000" W
112.50 m
6158355
71508
XTO

Download Data

Hourly Data (September 2017)
Hourly Data Report for September 4, 2017
TIME
LST
Temp Definition
°C
Dew Point Definition
°C
Rel Hum Definition
%
Precip. Amount Definition
mm

Wind Dir Definition
10's deg

Wind Spd Definition
km/h
Visibility Definition
km
Stn Press Definition
kPa
Hmdx Definition


Wind Chill Definition


Weather Definition


00:00 16.4 12.4 77 0.0 LegendMM LegendMM   99.74     LegendNANA
01:00 15.7 12.2 80 0.0 LegendMM LegendMM   99.70     LegendNANA
02:00 15.0 12.3 84 0.0 LegendMM LegendMM   99.69     LegendNANA
03:00 15.1 12.1 82 0.0 LegendMM LegendMM   99.64     LegendNANA
04:00 16.5 11.9 75 0.0 LegendMM LegendMM   99.64     LegendNANA
05:00 15.6 11.7 78 0.0 LegendMM LegendMM   99.62     LegendNANA
06:00 16.5 13.2 81 0.0 LegendMM LegendMM   99.59     LegendNANA
07:00 17.6 14.5 82 0.0 LegendMM LegendMM   99.62     LegendNANA
08:00 19.1 14.4 75 0.0 LegendMM LegendMM   99.54     LegendNANA
09:00 20.6 15.4 72 0.0 LegendMM LegendMM   99.50 25   LegendNANA
10:00 22.6 15.5 64 0.0 LegendMM LegendMM   99.37 27   LegendNANA
11:00 23.7 15.5 60 0.0 LegendMM LegendMM   99.25 28   LegendNANA
12:00 24.6 15.0 55 0.0 LegendMM LegendMM   99.13 29   LegendNANA
13:00 25.0 13.4 49 0.0 LegendMM LegendMM   99.06 28   LegendNANA
14:00 25.4 13.9 49 0.0 LegendMM LegendMM   98.96 29   LegendNANA
15:00 25.6 13.6 47 0.0 LegendMM LegendMM   98.82 29   LegendNANA
16:00 24.4 13.1 49 0.0 LegendMM LegendMM   98.73 27   LegendNANA
17:00 23.8 14.7 57 0.0 LegendMM LegendMM   98.80 28   LegendNANA
18:00 23.3 15.4 61 0.0 LegendMM LegendMM   98.65 28   LegendNANA
19:00 22.3 16.7 71 0.9 LegendMM LegendMM   98.70 27   LegendNANA
20:00 20.6 16.7 78 2.5 LegendMM LegendMM   98.84 26   LegendNANA
21:00 19.8 17.4 86 1.0 LegendMM LegendMM   98.78     LegendNANA
22:00 19.7 15.7 78 0.0 LegendMM LegendMM   98.91     LegendNANA
23:00 17.4 13.3 77 0.0 LegendMM LegendMM   98.95     LegendNANA

Notes on Data Quality.

Legend

  • E = Estimated
  • M = Missing
  • NA = Not Available*
  • [empty] = Indicates an unobserved value
Date modified: